DW3648 Weather Reports


time (UTC)temp
C
wind
direction
speed
KPH
gust
KPH
rain 1hr
cm
rain 24hr
cm
rain mn
cm
humidity
%
barometer
mb
20190420123210 14 238 1.6 6.4 0.00 0.05 0.00 65 1006.0
20190420121712 14 289 6.4 11.3 0.00 0.05 0.00 67 1006.0
20190420120210 14 200 1.6 9.7 0.00 0.05 0.00 63 1006.2
20190420114653 14 252 6.4 14.5 0.00 0.05 0.00 62 1006.3
20190420113158 14 288 1.6 8.0 0.00 0.05 0.00 63 1006.4
20190420111712 14 288 3.2 11.3 0.00 0.05 0.00 66 1006.4
20190420110223 13 312 1.6 9.7 0.00 0.05 0.00 67 1006.4
20190420104617 13 264 0.0 8.0 0.00 0.05 0.00 68 1006.7
20190420103128 12 150 0.0 3.2 0.00 0.05 0.00 70 1006.8
20190420101659 12 153 1.6 8.0 0.00 0.05 0.00 72 1006.7
20190420100129 12 240 3.2 12.9 0.00 0.05 0.00 72 1006.7
20190420094610 12 279 8.0 20.9 0.00 0.05 0.00 72 1006.7
20190420093123 12 200 8.0 14.5 0.00 0.05 0.00 72 1006.7
20190420091609 12 244 4.8 11.3 0.00 0.05 0.00 73 1006.6
20190420090048 11 213 0.0 16.1 0.00 0.05 0.00 77 1006.6
20190420084556 11 153 3.2 11.3 0.00 0.05 0.00 80 1006.4
20190420083111 11 180 1.6 9.7 0.00 0.05 0.00 82 1006.4
20190420081620 10 98 0.0 8.0 0.00 0.05 0.00 85 1006.4
20190420080103 10 107 0.0 8.0 0.00 0.05 0.00 87 1006.3
20190420074603 9 103 0.0 9.7 0.00 0.05 0.00 88 1006.2
20190420073128 9 107 3.2 11.3 0.00 0.05 0.00 88 1006.1
20190420071612 9 94 1.6 9.7 0.00 0.05 0.00 88 1006.0
20190420070129 9 119 1.6 14.5 0.00 0.05 0.00 86 1006.1
20190420064543 8 96 0.0 14.5 0.00 0.05 0.00 87 1006.0
20190420063054 8 279 0.0 6.4 0.00 0.05 0.00 90 1006.0
20190420061616 8 279 0.0 3.2 0.00 0.05 0.00 90 1006.2
20190420060038 8 279 0.0 3.2 0.00 0.05 0.00 91 1006.2
20190420054549 8 279 0.0 0.0 0.00 0.05 0.00 90 1006.2
20190420053040 8 279 0.0 6.4 0.00 0.05 0.00 90 1006.2
20190420051602 8 279 0.0 6.4 0.00 0.05 0.00 90 1006.0
20190420050032 8 279 1.6 4.8 0.00 0.08 0.00 91 1006.0
20190420044551 8 279 0.0 9.7 0.00 0.08 0.00 91 1006.2
20190420043041 8 228 1.6 8.0 0.00 0.08 0.00 91 1006.5
20190420041524 8 128 0.0 3.2 0.00 0.08 0.00 91 1006.7
20190420040056 8 89 0.0 1.6 0.00 0.08 0.00 90 1006.9
20190420034608 8 89 0.0 3.2 0.00 0.08 0.00 90 1007.3
20190420033056 8 89 0.0 1.6 0.00 0.08 0.00 90 1007.3
20190420031529 8 89 0.0 6.4 0.00 0.08 0.00 90 1007.8
20190420030044 8 89 0.0 0.0 0.00 0.08 0.00 90 1007.8
20190420024524 8 89 0.0 0.0 0.00 0.08 0.00 90 1008.2
20190420023108 8 89 0.0 6.4 0.00 0.08 0.00 90 1008.6
20190420021551 8 89 0.0 3.2 0.00 0.08 0.00 90 1008.7
20190420020033 8 89 0.0 8.0 0.00 0.08 0.00 89 1008.8
20190420014517 8 89 0.0 0.0 0.00 0.08 0.00 90 1009.1
20190420013015 8 89 0.0 0.0 0.00 0.08 0.00 89 1009.6
20190420011516 8 89 0.0 0.0 0.00 0.08 0.00 89 1009.9
20190420010011 8 89 0.0 1.6 0.00 0.08 0.00 89 1010.0
20190420004520 8 89 0.0 6.4 0.00 0.08 0.00 89 1010.1
20190420003010 8 89 0.0 0.0 0.00 0.08 0.00 88 1010.1
20190420001507 9 89 0.0 3.2 0.00 0.08 0.00 88 1010.1
20190420000006 9 96 0.0 1.6 0.00 0.08 0.00 88 1010.2
20190419234505 9 107 1.6 8.0 0.00 0.08 0.00 88 1010.4
20190419233123 9 84 6.4 9.7 0.00 0.08 0.00 86 1010.4
20190419231712 10 92 0.0 3.2 0.00 0.08 0.00 85 1010.4
20190419230128 10 92 0.0 3.2 0.00 0.08 0.00 85 1010.5
20190419224705 10 92 0.0 3.2 0.00 0.08 0.00 84 1010.8
20190419223130 10 92 0.0 3.2 0.00 0.08 0.00 83 1010.8
20190419221746 11 92 0.0 0.0 0.00 0.08 0.00 82 1010.9
20190419220131 11 92 0.0 0.0 0.00 0.08 0.08 82 1011.2
20190419214615 11 92 0.0 0.0 0.00 0.08 0.08 82 1011.2
20190419213133 11 92 0.0 1.6 0.00 0.08 0.08 82 1011.4
20190419211610 11 121 0.0 6.4 0.00 0.08 0.08 82 1011.3
20190419210108 11 106 0.0 1.6 0.00 0.08 0.08 80 1011.0
20190419204637 11 106 0.0 0.0 0.00 0.08 0.08 80 1011.1
20190419203308 11 106 0.0 0.0 0.00 0.08 0.08 80 1011.2
20190419201608 11 106 0.0 8.0 0.00 0.08 0.08 80 1011.1
20190419200107 11 111 0.0 0.0 0.00 0.08 0.08 77 1011.1
20190419194630 11 111 0.0 1.6 0.00 0.08 0.08 78 1011.0
20190419193151 11 111 0.0 3.2 0.00 0.08 0.08 78 1010.9
20190419191639 12 293 0.0 0.0 0.00 0.08 0.08 76 1010.8
20190419190120 12 293 0.0 9.7 0.00 0.10 0.08 72 1010.5
20190419184602 12 261 0.0 8.0 0.00 0.10 0.08 69 1010.5
20190419183136 12 310 0.0 9.7 0.00 0.10 0.08 72 1010.4
20190419181631 12 309 1.6 9.7 0.00 0.10 0.08 72 1010.2
20190419180139 12 300 1.6 8.0 0.00 0.43 0.08 70 1010.1
20190419174634 12 272 6.4 12.9 0.00 0.43 0.08 68 1009.8
20190419173056 12 287 1.6 11.3 0.00 0.43 0.08 69 1009.8
20190419171619 13 242 9.7 19.3 0.00 0.43 0.08 69 1009.7
20190419170114 13 267 3.2 20.9 0.00 2.06 0.08 72 1009.4
20190419164632 15 288 6.4 20.9 0.00 2.06 0.08 62 1009.3
20190419163054 16 291 4.8 17.7 0.00 2.06 0.08 57 1009.1
20190419161621 15 269 11.3 17.7 0.00 2.06 0.08 57 1008.9
20190419160111 15 312 8.0 16.1 0.00 2.18 0.08 58 1008.9
20190419154620 16 249 3.2 17.7 0.03 2.18 0.08 58 1008.9
20190419153203 16 217 8.0 16.1 0.03 2.18 0.08 50 1008.9
20190419151606 16 310 4.8 9.7 0.03 2.18 0.08 56 1008.9
20190419150121 15 277 1.6 9.7 0.03 2.18 0.08 61 1008.8
20190419144632 14 129 1.6 8.0 0.03 2.16 0.05 62 1008.9
20190419143133 13 129 0.0 8.0 0.03 2.16 0.05 72 1009.1
20190419141555 12 129 0.0 3.2 0.03 2.16 0.05 80 1009.3
20190419140114 12 129 0.0 8.0 0.00 2.13 0.05 74 1009.4
20190419134633 12 94 4.8 12.9 0.00 2.13 0.03 67 1009.6
20190419133053 13 115 3.2 11.3 0.00 2.13 0.03 62 1009.7
20190419131606 13 152 6.4 16.1 0.00 2.13 0.03 61 1009.5
20190419130103 13 201 6.4 14.5 0.00 2.13 0.03 60 1009.4
20190419124620 14 60 4.8 11.3 0.00 2.13 0.03 56 1009.3